• In Portugal
  • List of Countries
  • For 7 days
  • Water Temperature
  • Satellite Maps
  • Weather Map
  • Weather Widgets
  • user-avatar
    Login

    Hourly Weather Myitkyina

    Today, 20 October, Friday

    Time Temperature Precipitation Wind Pressure Humidity
    00:00 +23°C° 0 mm 0 mps 742 mmHg 86%
    01:00 +23°C° 0.1 mm 0 mps 742 mmHg 86%
    02:00 +23°C° 0.1 mm 0 mps 742 mmHg 86%
    03:00 +22°C° 0.1 mm 0 mps 742 mmHg 86%
    04:00 +22°C° 0.1 mm 0 mps 742 mmHg 86%
    05:00 +22°C° 0.1 mm 0 mps 742 mmHg 86%
    06:00 +22°C° 0.1 mm 0 mps 743 mmHg 86%
    07:00 +24°C° 0.1 mm 0 mps 743 mmHg 78%
    08:00 +26°C° 0.1 mm 0 mps 743 mmHg 69%
    09:00 +29°C° 0.1 mm 0 mps 743 mmHg 60%
    10:00 +30°C° 0.1 mm 0 mps 743 mmHg 58%
    11:00 +31°C° 0.1 mm 0 mps 742 mmHg 55%
    12:00 +32°C° 0.1 mm 0 mps 742 mmHg 53%
    13:00 +33°C° 0.5 mm 1 mps 741 mmHg 58%
    14:00 +32°C° 0.5 mm 1 mps 740 mmHg 63%
    15:00 +31°C° 0.5 mm 1 mps 739 mmHg 68%
    16:00 +30°C° 0.5 mm 1 mps 740 mmHg 74%
    17:00 +26°C° 0.5 mm 0 mps 740 mmHg 81%
    18:00 +25°C° 0.5 mm 0 mps 740 mmHg 87%
    19:00 +24°C° 0.3 mm 0 mps 741 mmHg 87%
    20:00 +24°C° 0.3 mm 0 mps 741 mmHg 88%
    21:00 +24°C° 0.3 mm 0 mps 742 mmHg 89%
    22:00 +23°C° 0.3 mm 0 mps 742 mmHg 90%
    23:00 +23°C° 0.3 mm 0 mps 742 mmHg 91%

    Tomorrow, 21 October, Saturday

    Time Temperature Precipitation Wind Pressure Humidity
    00:00 +23°C° 0.3 mm 0 mps 741 mmHg 92%
    01:00 +23°C° 0.7 mm 0 mps 741 mmHg 92%
    02:00 +23°C° 0.7 mm 0 mps 741 mmHg 92%
    03:00 +23°C° 0.7 mm 0 mps 740 mmHg 92%
    04:00 +23°C° 2.4 mm 0 mps 740 mmHg 93%
    05:00 +22°C° 2.4 mm 0 mps 741 mmHg 94%
    06:00 +22°C° 2.4 mm 0 mps 741 mmHg 96%
    07:00 +22°C° 1.7 mm 0 mps 741 mmHg 96%
    08:00 +22°C° 1.7 mm 0 mps 742 mmHg 97%
    09:00 +23°C° 1.7 mm 0 mps 742 mmHg 98%
    10:00 +24°C° 0.3 mm 0 mps 742 mmHg 92%
    11:00 +25°C° 0.3 mm 0 mps 741 mmHg 87%
    12:00 +26°C° 0.3 mm 0 mps 741 mmHg 81%
    13:00 +27°C° 0.1 mm 0 mps 740 mmHg 79%
    14:00 +27°C° 0.1 mm 0 mps 739 mmHg 76%
    15:00 +28°C° 0.1 mm 0 mps 739 mmHg 73%
    16:00 +27°C° 0.6 mm 0 mps 739 mmHg 79%
    17:00 +25°C° 0.6 mm 0 mps 739 mmHg 84%
    18:00 +24°C° 0.6 mm 0 mps 739 mmHg 90%
    19:00 +23°C° 0.4 mm 0 mps 740 mmHg 90%
    20:00 +23°C° 0.4 mm 0 mps 740 mmHg 90%
    21:00 +23°C° 0.4 mm 0 mps 741 mmHg 90%
    22:00 +23°C° 0.1 mm 0 mps 740 mmHg 90%
    23:00 +23°C° 0.1 mm 0 mps 740 mmHg 90%

    Day after tomorrow, 22 October, Sunday

    Time Temperature Precipitation Wind Pressure Humidity
    00:00 +22°C° 0.1 mm 0 mps 740 mmHg 91%
    01:00 +22°C° 0.1 mm 0 mps 739 mmHg 91%
    02:00 +22°C° 0.1 mm 0 mps 739 mmHg 91%
    03:00 +22°C° 0.1 mm 0 mps 739 mmHg 91%
    04:00 +22°C° 0.1 mm 0 mps 739 mmHg 91%
    05:00 +22°C° 0.1 mm 0 mps 739 mmHg 91%
    06:00 +22°C° 0.1 mm 0 mps 740 mmHg 91%
    07:00 +23°C° 0.8 mm 0 mps 740 mmHg 88%
    08:00 +24°C° 0.8 mm 0 mps 741 mmHg 85%
    09:00 +25°C° 0.8 mm 0 mps 741 mmHg 82%
    10:00 +26°C° 0.6 mm 1 mps 741 mmHg 86%
    11:00 +25°C° 0.6 mm 1 mps 740 mmHg 90%
    12:00 +25°C° 0.6 mm 1 mps 740 mmHg 94%
    13:00 +25°C° 0.1 mm 1 mps 739 mmHg 91%
    14:00 +26°C° 0.1 mm 1 mps 739 mmHg 88%
    15:00 +27°C° 0.1 mm 1 mps 738 mmHg 84%
    16:00 +26°C° 0.1 mm 1 mps 739 mmHg 86%
    17:00 +26°C° 0.1 mm 1 mps 739 mmHg 87%
    18:00 +25°C° 0.1 mm 1 mps 739 mmHg 89%
    19:00 +25°C° 0 mm 1 mps 740 mmHg 89%
    20:00 +24°C° 0 mm 1 mps 740 mmHg 89%
    21:00 +24°C° 0 mm 1 mps 741 mmHg 88%
    22:00 +24°C° 0 mm 1 mps 740 mmHg 89%
    23:00 +21°C° 0 mm 0 mps 740 mmHg 89%

    23 October, Monday

    Time Temperature Precipitation Wind Pressure Humidity
    00:00 +21°C° 0 mm 0 mps 740 mmHg 89%
    01:00 +21°C° 0 mm 0 mps 740 mmHg 89%
    02:00 +23°C° 0 mm 1 mps 740 mmHg 89%
    03:00 +22°C° 0 mm 1 mps 739 mmHg 89%
    04:00 +22°C° 0 mm 1 mps 740 mmHg 89%
    05:00 +22°C° 0 mm 1 mps 740 mmHg 89%
    06:00 +20°C° 0 mm 0 mps 740 mmHg 89%
    07:00 +23°C° 0 mm 0 mps 741 mmHg 80%
    08:00 +27°C° 0 mm 1 mps 741 mmHg 71%
    09:00 +29°C° 0 mm 1 mps 742 mmHg 62%
    10:00 +31°C° 0 mm 1 mps 741 mmHg 58%
    11:00 +32°C° 0 mm 1 mps 741 mmHg 55%
    12:00 +34°C° 0 mm 1 mps 740 mmHg 51%
    13:00 +33°C° 0.2 mm 1 mps 740 mmHg 54%
    14:00 +33°C° 0.2 mm 1 mps 739 mmHg 57%
    15:00 +32°C° 0.2 mm 1 mps 739 mmHg 60%
    16:00 +30°C° 0.3 mm 1 mps 739 mmHg 68%
    17:00 +26°C° 0.3 mm 0 mps 740 mmHg 76%
    18:00 +24°C° 0.3 mm 0 mps 740 mmHg 84%
    19:00 +23°C° 0 mm 0 mps 741 mmHg 85%
    20:00 +23°C° 0 mm 0 mps 741 mmHg 86%
    21:00 +22°C° 0 mm 0 mps 742 mmHg 87%
    22:00 +22°C° 0 mm 0 mps 742 mmHg 88%
    23:00 +22°C° 0 mm 0 mps 742 mmHg 88%

    24 October, Tuesday

    Time Temperature Precipitation Wind Pressure Humidity
    00:00 +24°C° 0 mm 1 mps 742 mmHg 89%
    01:00 +23°C° 0 mm 1 mps 742 mmHg 88%
    02:00 +23°C° 0 mm 1 mps 742 mmHg 88%
    03:00 +23°C° 0 mm 1 mps 742 mmHg 88%
    04:00 +23°C° 0 mm 1 mps 742 mmHg 88%
    05:00 +23°C° 0 mm 1 mps 742 mmHg 88%
    06:00 +22°C° 0 mm 1 mps 743 mmHg 88%
    07:00 +25°C° 0 mm 1 mps 743 mmHg 77%
    08:00 +28°C° 0 mm 1 mps 744 mmHg 66%
    09:00 +29°C° 0 mm 0 mps 744 mmHg 55%
    10:00 +30°C° 0.1 mm 0 mps 743 mmHg 51%
    11:00 +32°C° 0.1 mm 0 mps 742 mmHg 47%
    12:00 +33°C° 0.1 mm 0 mps 742 mmHg 43%
    13:00 +32°C° 0.1 mm 0 mps 741 mmHg 47%
    14:00 +31°C° 0.1 mm 0 mps 741 mmHg 50%
    15:00 +31°C° 0.1 mm 0 mps 740 mmHg 53%
    16:00 +29°C° 0.1 mm 0 mps 741 mmHg 61%
    17:00 +27°C° 0.1 mm 0 mps 741 mmHg 69%
    18:00 +25°C° 0.1 mm 0 mps 742 mmHg 76%
    19:00 +24°C° 0.4 mm 0 mps 742 mmHg 78%
    20:00 +24°C° 0.4 mm 0 mps 743 mmHg 80%
    21:00 +23°C° 0.4 mm 0 mps 743 mmHg 82%
    22:00 +23°C° 1 mm 0 mps 743 mmHg 85%
    23:00 +22°C° 1 mm 0 mps 743 mmHg 87%

    25 October, Wednesday

    Time Temperature Precipitation Wind Pressure Humidity
    00:00 +22°C° 1 mm 0 mps 743 mmHg 90%
    01:00 +22°C° 1.8 mm 0 mps 743 mmHg 92%
    02:00 +23°C° 1.8 mm 1 mps 743 mmHg 93%
    03:00 +23°C° 1.8 mm 1 mps 743 mmHg 95%
    04:00 +23°C° 1.8 mm 1 mps 743 mmHg 96%
    05:00 +22°C° 1.8 mm 1 mps 744 mmHg 97%
    06:00 +22°C° 1.8 mm 1 mps 744 mmHg 97%
    07:00 +23°C° 0.5 mm 1 mps 744 mmHg 96%
    08:00 +23°C° 0.5 mm 1 mps 745 mmHg 94%
    09:00 +23°C° 0.5 mm 1 mps 745 mmHg 92%
    10:00 +23°C° 1 mm 1 mps 745 mmHg 91%
    11:00 +23°C° 1 mm 1 mps 744 mmHg 90%
    12:00 +23°C° 1 mm 1 mps 744 mmHg 89%
    13:00 +24°C° 0.2 mm 1 mps 744 mmHg 85%
    14:00 +25°C° 0.2 mm 1 mps 743 mmHg 82%
    15:00 +26°C° 0.2 mm 1 mps 743 mmHg 78%
    16:00 +25°C° 0 mm 1 mps 743 mmHg 81%
    17:00 +24°C° 0 mm 1 mps 743 mmHg 85%
    18:00 +21°C° 0 mm 0 mps 743 mmHg 89%
    19:00 +23°C° 0.1 mm 1 mps 744 mmHg 88%
    20:00 +22°C° 0.1 mm 1 mps 744 mmHg 87%
    21:00 +22°C° 0.1 mm 1 mps 744 mmHg 87%
    22:00 +22°C° 0.5 mm 1 mps 744 mmHg 87%
    23:00 +20°C° 0.5 mm 0 mps 744 mmHg 86%
    Show more